TimeCET,TemperatureF,Dew PointF,Humidity,Sea Level PressureIn,VisibilityMPH,Wind Direction,Wind SpeedMPH,Gust SpeedMPH,PrecipitationIn,Events,Conditions,WindDirDegrees,DateUTC
12:55 AM,17.6,14.0,86,29.83,-9999.0,North,13.8,-,N/A,,Clear,350,2012-12-18 23:55:00
1:00 AM,18,15,80,,37,North,13.8,,,,,350,2012-12-19 00:00:00
1:55 AM,17.6,12.2,79,29.83,-9999.0,North,17.3,-,N/A,,Clear,360,2012-12-19 00:55:00
2:55 AM,17.6,12.2,79,29.86,-9999.0,North,16.1,-,N/A,,Clear,360,2012-12-19 01:55:00
3:55 AM,19.4,10.4,68,29.86,-9999.0,North,13.8,-,N/A,,Clear,360,2012-12-19 02:55:00
4:00 AM,19,11,60,,44,North,13.8,,,,,0,2012-12-19 03:00:00
4:55 AM,17.6,10.4,73,29.86,-9999.0,NNW,13.8,-,N/A,,Clear,340,2012-12-19 03:55:00
5:55 AM,23.0,15.8,74,29.89,-9999.0,North,15.0,26.5,N/A,,Clear,360,2012-12-19 04:55:00
6:55 AM,19.4,10.4,68,29.89,-9999.0,North,16.1,-,N/A,,Clear,360,2012-12-19 05:55:00
7:00 AM,19,11,58,,47,North,16.1,,,,,0,2012-12-19 06:00:00
7:55 AM,17.6,10.4,73,29.92,-9999.0,North,16.1,-,N/A,,Clear,10,2012-12-19 06:55:00
8:55 AM,17.6,8.6,68,29.95,-9999.0,North,12.7,-,N/A,,Clear,10,2012-12-19 07:55:00
9:55 AM,19.4,8.6,63,29.98,-9999.0,North,12.7,-,N/A,,Clear,360,2012-12-19 08:55:00
10:00 AM,19,9,52,,44,North,12.7,,,,,0,2012-12-19 09:00:00
10:55 AM,19.4,10.4,68,29.98,-9999.0,NNE,8.1,-,N/A,,Clear,30,2012-12-19 09:55:00
11:55 AM,19.4,10.4,68,29.95,-9999.0,NNE,11.5,-,N/A,,Clear,30,2012-12-19 10:55:00
12:55 PM,19.4,10.4,68,29.95,-9999.0,North,9.2,-,N/A,,Clear,360,2012-12-19 11:55:00
1:00 PM,20,10,52,,47,North,9.2,,,,,0,2012-12-19 12:00:00
1:55 PM,21.2,10.4,63,29.95,-9999.0,North,8.1,-,N/A,,Clear,360,2012-12-19 12:55:00
2:55 PM,21.2,10.4,63,29.95,-9999.0,Calm,Calm,-,N/A,,Clear,360,2012-12-19 13:55:00
3:55 PM,21.2,10.4,63,29.98,-9999.0,North,8.1,-,N/A,,Clear,360,2012-12-19 14:55:00
4:00 PM,21,11,51,,47,North,8.1,,,,,0,2012-12-19 15:00:00
4:55 PM,21.2,10.4,63,29.98,-9999.0,North,11.5,-,N/A,,Clear,360,2012-12-19 15:55:00
5:55 PM,19.4,10.4,68,29.98,-9999.0,North,12.7,-,N/A,,Clear,350,2012-12-19 16:55:00
6:55 PM,19.4,10.4,68,30.01,-9999.0,North,13.8,-,N/A,,Clear,10,2012-12-19 17:55:00
7:00 PM,20,11,57,,44,North,13.8,,,,,10,2012-12-19 18:00:00
7:55 PM,19.4,10.4,68,30.01,-9999.0,North,11.5,-,N/A,,Clear,360,2012-12-19 18:55:00
8:55 PM,19.4,10.4,68,30.01,-9999.0,North,12.7,-,N/A,,Clear,360,2012-12-19 19:55:00
9:55 PM,19.4,10.4,68,30.01,-9999.0,North,6.9,-,N/A,,Clear,10,2012-12-19 20:55:00
10:00 PM,20,10,53,,44,North,6.9,,,,,10,2012-12-19 21:00:00
10:55 PM,21.2,1.4,42,30.01,-9999.0,NNE,6.9,-,N/A,,Clear,20,2012-12-19 21:55:00
11:55 PM,21.2,-0.4,39,30.01,-9999.0,North,4.6,-,N/A,,Clear,350,2012-12-19 22:55:00